Weather History for Rutland, VT

Change the Weather History Date:

Monday, May 2, 2011

  Actual Average Record
Temperature  
Mean Temperature 55 °F -  
Max Temperature 68 °F - 84 °F (2001)
Min Temperature 42 °F - 28 °F (1974)
Degree Days  
Heating Degree Days 10    
Month to date heating degree days  
Since 1 July heating degree days  
Cooling Degree Days 0    
Month to date cooling degree days  
Year to date cooling degree days  
Growing Degree Days 5 (Base 50)    
Moisture  
Dew Point 38 °F    
Average Humidity 53    
Maximum Humidity 70    
Minimum Humidity 37    
Precipitation  
Precipitation 0.00 in - 1.22 in (1989)
Month to date precipitation  
Year to date precipitation  
Sea Level Pressure  
Sea Level Pressure 30.18 in    
Wind  
Wind Speed 12 mph (SSE)    
Max Wind Speed 16 mph    
Max Gust Speed 23 mph    
Visibility 10 miles    
Events      
T = Trace of Precipitation, MM = Missing Value Source: NWS Daily Summary

Daily Weather History Graph

Daily Weather History Graph

Search for Another Location

Airport:

Trip Planner

Search our weather history database for the weather conditions in past years. The results will help you decide how hot, cold, wet, or windy it might be!

Date:

Astronomy

May. 02, 2011 Rise Set
Actual Time 5:43 AM EDT 7:54 PM EDT
Civil Twilight 5:12 AM EDT 8:26 PM EDT
Nautical Twilight 4:33 AM EDT 9:05 PM EDT
Astronomical Twilight 3:50 AM EDT 9:48 PM EDT
Moon 5:00 AM EDT (5/2) 7:41 PM EDT (5/2)
Length of Visible Light 15h 14m
Length of Day
14h 11m
Waning Crescent, 0% of the Moon is Illuminated
May 2
Waning Crescent
May 3
New
May 10
First Quarter
May 17
Full
May 24
Last Quarter

Hourly Weather History & Observations

Time (EDT) Temp. Windchill Dew Point Humidity Pressure Visibility Wind Dir Wind Speed Gust Speed Precip Events Conditions
12:55 AM 50.0 °F - 33.8 °F 54% 30.23 in 10.0 mi SE 15.0 mph - N/A   Clear
1:15 AM 50.0 °F - 33.8 °F 54% 30.23 in 10.0 mi SE 16.1 mph - N/A   Clear
1:35 AM 48.2 °F - 33.8 °F 58% 30.23 in 10.0 mi SE 15.0 mph 23.0 mph N/A   Clear
1:55 AM 48.2 °F - 33.8 °F 58% 30.22 in 10.0 mi SE 13.8 mph - N/A   Clear
2:15 AM 48.2 °F - 33.8 °F 58% 30.22 in 10.0 mi SE 13.8 mph 18.4 mph N/A   Clear
2:35 AM 46.4 °F 41.5 °F 33.8 °F 62% 30.22 in 10.0 mi SE 10.4 mph 16.1 mph N/A   Clear
2:55 AM 46.4 °F 40.7 °F 33.8 °F 62% 30.21 in 10.0 mi ESE 12.7 mph 18.4 mph N/A   Clear
3:15 AM 46.4 °F 40.1 °F 33.8 °F 62% 30.21 in 10.0 mi SE 15.0 mph 18.4 mph N/A   Clear
3:35 AM 46.4 °F 40.7 °F 33.8 °F 62% 30.21 in 10.0 mi SSE 12.7 mph - N/A   Clear
3:55 AM 46.4 °F 41.1 °F 33.8 °F 62% 30.21 in 10.0 mi SSE 11.5 mph 17.3 mph N/A   Clear
4:15 AM 44.6 °F 38.4 °F 33.8 °F 66% 30.20 in 10.0 mi SE 12.7 mph - N/A   Clear
4:35 AM 44.6 °F 38.4 °F 33.8 °F 66% 30.21 in 10.0 mi SSE 12.7 mph - N/A   Clear
4:55 AM 44.6 °F 39.2 °F 33.8 °F 66% 30.21 in 10.0 mi SSE 10.4 mph - N/A   Clear
5:15 AM 44.6 °F 39.7 °F 33.8 °F 66% 30.21 in 10.0 mi SE 9.2 mph - N/A   Clear
5:35 AM 44.6 °F 39.2 °F 33.8 °F 66% 30.21 in 10.0 mi SE 10.4 mph 18.4 mph N/A   Clear
5:55 AM 44.6 °F 38.8 °F 33.8 °F 66% 30.22 in 10.0 mi SE 11.5 mph 19.6 mph N/A   Clear
6:15 AM 42.8 °F 37.0 °F 33.8 °F 70% 30.25 in 10.0 mi SE 10.4 mph - N/A   Clear
6:35 AM 44.6 °F 39.2 °F 33.8 °F 66% 30.25 in 10.0 mi ESE 10.4 mph - N/A   Clear
6:55 AM 44.6 °F 39.7 °F 33.8 °F 66% 30.25 in 10.0 mi ESE 9.2 mph - N/A   Clear
7:15 AM 46.4 °F 41.5 °F 33.8 °F 62% 30.26 in 10.0 mi SE 10.4 mph - N/A   Clear
7:35 AM 46.4 °F 41.1 °F 33.8 °F 62% 30.25 in 10.0 mi SE 11.5 mph - N/A   Clear
7:55 AM 46.4 °F 41.1 °F 33.8 °F 62% 30.25 in 10.0 mi SE 11.5 mph - N/A   Clear
8:15 AM 48.2 °F - 35.6 °F 62% 30.25 in 10.0 mi SE 9.2 mph - N/A   Clear
8:35 AM 50.0 °F - 35.6 °F 58% 30.24 in 10.0 mi SSE 9.2 mph - N/A   Clear
8:55 AM 51.8 °F - 35.6 °F 54% 30.22 in 10.0 mi SSE 6.9 mph - N/A   Clear
9:15 AM 55.4 °F - 37.4 °F 51% 30.20 in 10.0 mi South 10.4 mph - N/A   Clear
9:35 AM 55.4 °F - 37.4 °F 51% 30.20 in 10.0 mi South 5.8 mph - N/A   Clear
10:15 AM 59.0 °F - 39.2 °F 48% 30.19 in 10.0 mi SE 10.4 mph - N/A   Clear
10:35 AM 62.6 °F - 39.2 °F 42% 30.18 in 10.0 mi SE 9.2 mph - N/A   Clear
10:55 AM 62.6 °F - 41.0 °F 45% 30.17 in 10.0 mi ESE 11.5 mph - N/A   Clear
11:15 AM 62.6 °F - 41.0 °F 45% 30.17 in 10.0 mi ESE 10.4 mph - N/A   Mostly Cloudy
11:35 AM 64.4 °F - 42.8 °F 45% 30.17 in 8.0 mi South 10.4 mph - N/A   Overcast
11:55 AM 64.4 °F - 42.8 °F 45% 30.16 in 10.0 mi SSW 10.4 mph - N/A   Overcast
12:15 PM 64.4 °F - 42.8 °F 45% 30.15 in 10.0 mi SW 4.6 mph - N/A   Overcast
12:35 PM 66.2 °F - 39.2 °F 37% 30.15 in 10.0 mi SSW 13.8 mph 17.3 mph N/A   Overcast
12:55 PM 66.2 °F - 41.0 °F 40% 30.13 in 10.0 mi SSW 11.5 mph - N/A   Overcast
1:15 PM 68.0 °F - 42.8 °F 40% 30.12 in 10.0 mi SW 11.5 mph 20.7 mph N/A   Mostly Cloudy
1:35 PM 66.2 °F - 42.8 °F 43% 30.12 in 10.0 mi SSW 11.5 mph - N/A   Mostly Cloudy
1:55 PM 66.2 °F - 42.8 °F 43% 30.10 in 10.0 mi South 12.7 mph - N/A   Overcast
2:15 PM 68.0 °F - 44.6 °F 43% 30.09 in 10.0 mi SW 11.5 mph 18.4 mph N/A   Mostly Cloudy
2:35 PM 68.0 °F - 44.6 °F 43% 30.09 in 10.0 mi SW 9.2 mph 19.6 mph N/A   Overcast
2:55 PM 68.0 °F - 44.6 °F 43% 30.09 in 10.0 mi SW 10.4 mph - N/A   Overcast
3:15 PM 68.0 °F - 44.6 °F 43% 30.07 in 10.0 mi SW 8.1 mph - N/A   Overcast
3:35 PM 68.0 °F - 46.4 °F 46% 30.07 in 10.0 mi South 8.1 mph - N/A   Overcast
4:15 PM 68.0 °F - 44.6 °F 43% 30.04 in 10.0 mi SSW 9.2 mph - N/A   Mostly Cloudy
4:35 PM 68.0 °F - 44.6 °F 43% 30.05 in 10.0 mi SW 11.5 mph 17.3 mph N/A   Mostly Cloudy
4:55 PM 68.0 °F - 44.6 °F 43% 30.05 in 10.0 mi SW 10.4 mph - N/A   Mostly Cloudy
5:15 PM 66.2 °F - 44.6 °F 46% 30.06 in 10.0 mi SW 9.2 mph - N/A   Overcast
5:35 PM 66.2 °F - 44.6 °F 46% 30.08 in 10.0 mi WSW 8.1 mph - N/A   Overcast
5:55 PM 64.4 °F - 42.8 °F 45% 30.10 in 10.0 mi West 8.1 mph - N/A   Overcast
6:15 PM 62.6 °F - 44.6 °F 52% 30.07 in 10.0 mi South 4.6 mph - N/A   Overcast
6:35 PM 62.6 °F - 44.6 °F 52% 30.08 in 10.0 mi ESE 4.6 mph - N/A   Overcast
6:55 PM 62.6 °F - 44.6 °F 52% 30.08 in 10.0 mi Calm Calm - N/A   Overcast
7:15 PM 62.6 °F - 44.6 °F 52% 30.09 in 10.0 mi WNW 4.6 mph - N/A   Overcast
7:35 PM 62.6 °F - 44.6 °F 52% 30.10 in 10.0 mi Calm Calm - N/A   Overcast
7:55 PM 60.8 °F - 44.6 °F 55% 30.11 in 10.0 mi North 5.8 mph - N/A   Overcast
8:15 PM 60.8 °F - 44.6 °F 55% 30.12 in 10.0 mi NNE 5.8 mph - N/A   Overcast
8:35 PM 60.8 °F - 46.4 °F 59% 30.12 in 10.0 mi ENE 4.6 mph - N/A   Overcast
8:55 PM 60.8 °F - 44.6 °F 55% 30.12 in 10.0 mi Calm Calm - N/A   Overcast
9:15 PM 60.8 °F - 44.6 °F 55% 30.13 in 10.0 mi Calm Calm - N/A   Overcast
9:35 PM 60.8 °F - 46.4 °F 59% 30.13 in 10.0 mi Calm Calm - N/A   Overcast
9:55 PM 60.8 °F - 44.6 °F 55% 30.13 in 10.0 mi WSW 4.6 mph - N/A   Overcast
10:15 PM 60.8 °F - 44.6 °F 55% 30.13 in 10.0 mi West 4.6 mph - N/A   Overcast
10:35 PM 60.8 °F - 44.6 °F 55% 30.13 in 10.0 mi Calm Calm - N/A   Overcast
10:55 PM 59.0 °F - 46.4 °F 63% 30.13 in 10.0 mi Calm Calm - N/A   Overcast
11:15 PM 59.0 °F - 46.4 °F 63% 30.13 in 10.0 mi West 3.5 mph - N/A   Overcast
11:35 PM 60.8 °F - 46.4 °F 59% 30.13 in 10.0 mi WSW 4.6 mph - N/A   Overcast
11:55 PM 60.8 °F - 46.4 °F 59% 30.13 in 10.0 mi SW 4.6 mph - N/A   Overcast